Probability
100 100 100 100 100 100 100 100 100 100 100 100 100 100 100 100 100 100 100 100 100 97 100 97 90 84 77 90 94 100 100 94 97 97 100 100 100 100 100 97 100 97 100
100 100 100 100 100 100 100 100 100 100 100 100 100 100 100 100 100 100 100 100 100 97 97 100 100 100 100 100 100 100 100 94 90 97 97 100 100 100 100 100 100 100 100
100 100 100 100 100 100 100 100 100 100 100 100 100 100 100 100 100 100 100 100 97 100 100 100 100 100 100 100 100 100 97 100 94 87 97 94 97 100 100 100 100 100 100
100 100 100 100 100 100 100 100 100 100 100 100 100 100 100 100 100 100 100 97 94 100 100 100 100 100 100 100 100 97 90 100 97 97 97 94 68 97 100 100 100 100 100
100 100 100 100 100 100 100 100 100 100 100 100 100 100 100 100 100 100 97 97 94 97 97 100 100 100 100 97 97 94 90 94 100 100 100 100 97 100 97 97 97 100 100
100 100 100 100 100 100 100 100 100 100 100 100 100 100 100 100 100 100 97 97 97 100 100 100 97 100 100 97 94 100 97 100 100 100 100 100 100 100 97 94 94 97 100
100 100 100 100 100 100 100 100 100 100 100 100 100 100 100 100 100 100 100 100 100 100 100 100 100 100 97 97 100 100 100 100 100 100 94 100 100 100 100 97 97 97 97
100 100 100 100 100 100 100 100 100 100 100 100 100 100 100 100 100 100 100 100 100 100 100 100 100 100 100 97 100 100 100 100 68 71 90 97 100 100 100 100 100 100 97
97 100 100 100 100 100 100 100 100 100 100 100 100 100 100 100 100 100 100 100 100 100 100 100 100 100 100 100 100 100 100 100 100 71 48 100 100 100 100 100 100 100 100
97 100 100 100 100 100 100 100 100 100 100 100 100 100 100 100 100 100 100 100 100 100 100 97 97 97 97 100 100 100 100 100 87 3 6 100 100 100 100 100 100 100 100
87 100 100 100 100 100 100 100 100 100 100 100 100 100 100 100 100 100 100 100 100 100 100 100 100 100 100 100 100 100 100 100 3 0 23 100 100 100 100 100 100 100 100
84 100 100 100 100 100 100 100 100 100 100 100 100 100 100 100 100 94 97 100 100 100 100 97 97 100 100 100 100 100 100 71 19 16 71 100 100 100 100 100 100 100 100
97 97 94 97 100 100 100 100 100 100 100 100 100 100 100 100 97 94 90 100 100 94 94 94 94 94 94 90 87 90 94 68 58 39 77 100 100 100 100 100 100 100 100
97 97 94 94 97 97 100 100 100 100 100 100 100 100 100 97 90 84 81 87 90 81 87 84 90 87 87 87 84 84 81 81 74 71 87 94 94 97 97 97 100 97 97
97 94 97 97 100 100 100 100 94 100 97 100 100 100 100 90 81 71 74 68 65 52 65 55 52 55 68 81 81 77 84 77 74 74 74 87 90 87 94 94 97 94 87
97 97 97 90 97 100 100 100 100 100 100 97 100 97 100 94 90 84 71 68 48 29 29 29 26 35 35 48 61 65 71 71 74 61 58 65 84 87 84 87 90 87 87
97 97 94 84 94 100 100 100 100 100 94 97 97 97 97 100 97 87 71 61 42 29 13 13 16 16 26 29 32 42 45 52 55 48 45 42 42 58 74 74 81 87 84
97 97 90 65 74 90 90 97 97 97 97 100 97 100 94 84 84 84 74 61 48 32 23 10 10 10 19 23 26 23 26 39 26 32 26 29 16 19 45 71 77 84 84
94 90 81 77 81 77 71 71 74 84 90 97 97 97 90 84 84 84 81 68 48 26 23 6 6 3 3 13 23 26 29 29 26 23 19 13 13 23 16 29 65 65 71
65 68 65 58 58 48 29 45 48 45 48 65 74 71 74 74 74 87 84 71 58 42 35 10 10 13 16 19 0 0 16 19 29 19 16 3 6 10 13 13 19 29 71
29 39 35 42 45 55 32 23 23 3 16 26 39 39 29 39 45 65 65 84 74 52 32 29 19 23 23 29 16 3 0 6 10 19 10 10 6 16 32 19 10 13 3
6 10 32 29 29 32 45 52 39 16 6 3 13 10 10 10 13 10 55 58 68 74 55 42 39 32 29 13 0 0 3 0 16 0 3 26 6 13 6 13 10 32 19
0 3 0 16 29 45 29 13 6 6 3 6 3 3 0 0 3 6 19 32 65 71 68 45 42 26 23 23 29 0 0 0 0 0 3 0 3 0 0 0 6 26 32
0 0 6 16 23 16 10 6 0 0 0 0 3 0 0 0 0 3 3 3 26 48 58 48 35 42 32 19 19 39 26 0 0 0 0 0 3 6 6 0 0 6 29
0 0 3 6 3 3 3 0 0 0 0 0 0 0 0 0 0 0 0 0 3 6 16 26 39 48 45 19 19 29 16 26 6 0 0 0 0 6 10 10 3 6 19
0 0 0 0 0 0 0 0 0 0 0 0 0 0 0 0 0 0 0 0 0 3 3 6 13 23 29 16 19 16 23 16 3 0 0 0 0 3 13 23 13 26 23
Height
5913 5912 5912 5912 5911 5910 5909 5909 5908 5907 5906 5906 5905 5905 5904 5904 5904 5903 5903 5903 5902 5901 5900 5899 5897 5896 5895 5894 5893 5893 5893 5893 5893 5893 5893 5892 5892 5892 5893 5893 5894 5894 5894
5912 5911 5911 5910 5910 5909 5909 5908 5907 5907 5906 5905 5905 5904 5904 5904 5903 5903 5902 5902 5901 5901 5900 5899 5898 5896 5895 5894 5893 5893 5893 5893 5893 5894 5894 5893 5893 5893 5894 5894 5894 5895 5895
5911 5910 5910 5909 5909 5908 5907 5907 5906 5906 5905 5905 5904 5904 5904 5903 5903 5902 5901 5901 5900 5900 5899 5899 5898 5897 5895 5894 5893 5893 5893 5893 5894 5894 5894 5894 5894 5894 5894 5895 5895 5896 5896
5910 5910 5909 5908 5908 5907 5906 5906 5905 5905 5904 5903 5903 5903 5902 5902 5902 5901 5901 5900 5899 5899 5898 5898 5897 5896 5896 5894 5893 5893 5893 5893 5894 5894 5894 5895 5894 5894 5895 5895 5895 5896 5897
5910 5909 5909 5908 5907 5906 5906 5905 5904 5903 5903 5902 5902 5901 5901 5901 5900 5900 5899 5898 5898 5897 5896 5896 5896 5895 5895 5894 5894 5893 5892 5893 5893 5894 5894 5894 5894 5894 5895 5895 5896 5896 5897
5909 5908 5908 5907 5906 5905 5904 5903 5903 5902 5901 5900 5900 5899 5899 5898 5897 5897 5896 5896 5895 5895 5894 5894 5894 5893 5893 5893 5893 5892 5892 5892 5893 5893 5893 5893 5894 5894 5894 5895 5896 5896 5897
5907 5907 5906 5905 5904 5903 5902 5901 5900 5899 5898 5897 5896 5895 5894 5894 5893 5893 5892 5892 5892 5891 5891 5891 5890 5890 5890 5890 5890 5891 5891 5891 5892 5892 5893 5893 5893 5893 5894 5894 5895 5896 5896
5905 5904 5903 5903 5902 5901 5900 5898 5897 5896 5894 5893 5891 5890 5889 5888 5888 5887 5887 5886 5886 5886 5886 5886 5886 5886 5887 5887 5887 5887 5888 5888 5889 5890 5891 5892 5892 5892 5893 5893 5894 5895 5895
5902 5901 5901 5900 5899 5898 5896 5895 5893 5892 5890 5888 5887 5885 5883 5882 5881 5881 5880 5880 5880 5880 5881 5881 5881 5882 5882 5883 5883 5883 5884 5885 5886 5887 5888 5890 5890 5891 5891 5892 5892 5893 5894
5899 5899 5898 5897 5896 5894 5893 5891 5889 5888 5886 5884 5882 5880 5878 5876 5875 5874 5873 5873 5873 5873 5874 5874 5875 5876 5876 5877 5878 5879 5879 5880 5881 5882 5884 5887 5887 5888 5888 5889 5890 5891 5892
5896 5896 5895 5895 5893 5891 5889 5887 5885 5883 5882 5880 5877 5875 5873 5871 5869 5868 5867 5866 5866 5866 5866 5867 5867 5868 5869 5871 5872 5873 5874 5875 5875 5877 5879 5882 5882 5883 5885 5886 5887 5888 5889
5894 5892 5891 5890 5889 5887 5885 5883 5881 5879 5877 5875 5872 5870 5867 5865 5863 5861 5860 5859 5858 5858 5858 5859 5859 5860 5862 5864 5865 5867 5868 5868 5869 5871 5873 5876 5877 5878 5879 5881 5882 5884 5885
5891 5889 5888 5886 5884 5882 5880 5878 5876 5874 5872 5870 5867 5864 5861 5859 5856 5854 5853 5852 5850 5850 5850 5850 5851 5852 5854 5856 5858 5860 5861 5862 5863 5865 5867 5870 5870 5872 5873 5875 5876 5878 5880
5886 5884 5883 5881 5879 5877 5875 5872 5870 5868 5866 5864 5860 5857 5855 5853 5850 5848 5846 5844 5843 5842 5842 5842 5843 5844 5846 5848 5850 5853 5854 5855 5857 5858 5860 5863 5863 5865 5866 5868 5870 5872 5875
5880 5879 5878 5876 5875 5872 5870 5867 5865 5862 5859 5857 5854 5851 5849 5847 5844 5842 5840 5838 5836 5835 5834 5835 5835 5837 5838 5840 5843 5845 5847 5849 5850 5852 5854 5856 5857 5859 5860 5863 5865 5867 5869
5875 5874 5872 5871 5869 5867 5864 5862 5859 5856 5853 5850 5848 5845 5843 5841 5839 5836 5834 5832 5830 5828 5827 5828 5827 5828 5831 5833 5836 5838 5840 5842 5844 5845 5847 5850 5851 5853 5855 5857 5859 5862 5864
5869 5868 5866 5865 5863 5861 5858 5855 5852 5850 5847 5844 5841 5839 5837 5835 5833 5831 5828 5826 5824 5822 5821 5821 5821 5821 5824 5826 5828 5830 5832 5834 5836 5838 5840 5843 5845 5846 5849 5851 5854 5857 5859
5864 5863 5861 5859 5857 5854 5851 5848 5845 5842 5839 5837 5834 5832 5830 5828 5827 5825 5823 5821 5819 5817 5815 5815 5815 5815 5816 5818 5820 5822 5824 5827 5829 5831 5834 5836 5838 5839 5842 5846 5849 5852 5854
5859 5857 5855 5853 5850 5847 5844 5841 5838 5835 5832 5830 5827 5825 5823 5821 5819 5818 5817 5815 5813 5811 5810 5810 5810 5809 5810 5811 5813 5815 5818 5820 5822 5825 5827 5830 5832 5834 5836 5840 5843 5846 5850
5853 5851 5849 5846 5843 5840 5837 5834 5831 5828 5825 5822 5819 5818 5816 5814 5812 5810 5809 5808 5806 5805 5804 5803 5803 5803 5804 5804 5806 5807 5810 5812 5815 5818 5821 5823 5826 5829 5831 5833 5836 5841 5844
5848 5845 5842 5840 5837 5833 5829 5826 5823 5820 5817 5813 5811 5809 5807 5806 5804 5802 5801 5800 5799 5799 5798 5797 5797 5797 5797 5798 5799 5800 5802 5804 5807 5810 5814 5817 5820 5823 5825 5826 5831 5835 5839
5841 5838 5835 5832 5829 5825 5821 5817 5814 5811 5808 5805 5802 5800 5798 5797 5795 5793 5792 5792 5791 5791 5791 5790 5790 5791 5792 5792 5792 5793 5795 5797 5800 5803 5807 5810 5814 5817 5819 5822 5826 5830 5833
5833 5830 5827 5824 5820 5816 5812 5808 5805 5802 5799 5795 5792 5790 5788 5787 5785 5783 5781 5781 5781 5782 5782 5782 5782 5784 5784 5785 5786 5787 5788 5790 5793 5796 5799 5802 5806 5810 5813 5817 5821 5824 5828
5825 5821 5817 5814 5811 5807 5803 5798 5795 5791 5788 5785 5781 5778 5776 5775 5773 5771 5770 5769 5769 5770 5771 5773 5774 5775 5776 5777 5778 5779 5781 5783 5785 5788 5791 5794 5798 5802 5806 5810 5814 5818 5822
5818 5813 5809 5805 5802 5798 5793 5788 5784 5780 5776 5772 5769 5766 5763 5762 5760 5758 5757 5757 5756 5757 5759 5761 5763 5764 5766 5769 5770 5772 5773 5775 5777 5780 5783 5786 5791 5794 5799 5803 5807 5812 5816
5811 5807 5802 5797 5793 5789 5784 5779 5774 5770 5765 5761 5757 5754 5751 5749 5747 5745 5744 5744 5744 5744 5745 5748 5750 5753 5755 5758 5760 5763 5765 5767 5769 5772 5775 5779 5783 5787 5791 5796 5801 5805 5809
Wind_Speed
11 11 10 10 9 8 7 8 8 9 10 10 11 11 12 12 11 10 9 8 8 9 10 11 12 12 11 8 6 6 6 5 5 4 4 3 4 4 5 5 6 7 7
10 9 8 8 7 6 6 7 8 9 10 11 11 12 12 12 12 12 10 10 10 10 10 11 12 12 11 9 7 6 6 5 5 5 3 2 2 3 4 5 5 5 5
7 6 6 5 5 5 6 6 7 8 9 10 11 12 13 13 14 14 13 12 12 12 12 12 13 12 12 10 8 6 6 6 6 5 4 2 0 1 3 4 4 4 4
6 5 5 6 6 6 7 7 8 8 9 10 11 12 13 14 15 16 16 15 15 15 15 15 14 14 13 11 8 7 6 6 7 6 5 3 2 1 1 2 3 3 3
8 7 7 7 8 8 9 10 11 11 12 12 13 13 14 15 16 17 18 19 19 19 19 18 17 16 14 13 10 8 6 6 7 7 6 4 3 2 2 1 1 2 3
12 11 11 11 11 12 13 14 15 15 16 17 17 18 18 18 19 20 21 21 21 22 21 21 20 19 17 16 14 12 9 8 7 7 7 7 6 4 3 2 2 2 2
15 16 16 16 17 17 17 19 19 20 20 22 22 22 22 22 23 23 24 24 23 23 23 23 23 22 21 20 18 17 15 12 10 9 8 8 8 7 7 6 5 4 3
18 19 19 20 21 22 22 23 23 23 24 25 25 25 26 26 27 27 27 27 26 26 25 25 25 25 24 23 22 22 20 18 16 14 12 11 11 10 10 9 9 8 6
20 21 22 23 23 24 25 26 25 26 26 26 27 28 28 29 29 29 29 29 28 28 27 27 27 27 27 26 26 25 25 23 22 20 18 15 15 14 13 12 12 11 10
22 23 24 25 26 27 27 28 28 28 27 27 28 29 29 31 32 31 31 32 31 30 30 29 29 28 28 28 28 27 27 26 27 25 23 20 20 19 18 17 16 15 14
24 25 26 26 27 28 28 29 29 28 28 29 30 31 31 32 33 33 34 34 34 33 32 31 31 30 29 29 29 28 28 29 29 29 26 24 25 24 23 22 21 20 19
25 26 27 28 28 29 30 29 29 29 29 30 31 32 33 34 34 34 34 34 35 35 35 34 32 31 30 30 29 29 28 30 30 30 29 28 29 28 27 27 26 25 24
26 27 28 30 30 31 32 32 31 32 32 32 33 34 34 34 34 33 33 33 34 36 37 35 33 32 31 30 30 30 29 30 30 31 31 29 30 30 29 29 28 28 28
29 29 31 31 32 33 34 34 34 35 35 35 35 34 33 33 33 33 33 32 33 34 35 35 32 31 30 29 31 30 30 31 31 30 30 28 27 28 28 27 25 25 25
32 32 32 33 34 34 35 35 36 37 38 38 36 34 33 32 31 31 32 32 32 32 33 34 33 32 31 30 30 30 31 31 32 30 28 27 26 26 26 25 23 22 22
34 34 34 34 35 35 36 37 38 39 39 38 36 34 32 31 31 32 31 31 31 32 32 33 33 32 31 31 30 30 30 30 31 32 29 26 25 25 25 23 23 22 20
33 33 34 35 35 37 37 38 39 39 38 36 35 34 33 32 32 32 31 31 31 31 30 31 32 31 31 31 29 28 29 29 30 30 30 28 25 25 24 23 23 22 20
31 32 34 35 36 38 38 38 38 36 35 35 34 34 33 33 33 33 32 32 32 31 29 29 29 29 30 31 30 28 27 28 28 28 29 28 26 26 25 25 24 22 21
29 32 34 36 37 37 36 36 36 35 35 35 35 35 35 35 35 34 34 33 33 31 30 29 29 29 29 30 30 30 29 28 28 29 29 29 27 26 25 24 24 23 21
30 32 34 35 35 35 36 36 36 37 37 37 37 36 36 37 37 37 36 35 34 32 31 30 28 27 27 28 29 29 30 30 29 29 29 27 26 25 24 23 23 22 21
30 31 33 34 35 36 37 38 38 38 39 40 39 38 38 38 39 39 38 37 36 35 33 32 29 28 28 28 29 30 30 30 29 29 29 28 26 25 25 22 21 20 20
31 32 34 35 37 38 39 39 39 39 40 41 41 40 40 39 40 41 40 39 38 37 35 34 32 31 30 29 30 29 30 30 30 29 29 29 28 27 26 23 21 21 20
33 35 35 36 37 38 39 41 41 41 42 43 43 43 42 41 42 43 43 42 41 40 38 37 36 34 32 31 29 29 30 30 29 29 29 29 29 29 28 25 23 22 21
35 36 37 37 38 39 41 43 43 44 44 45 46 46 45 44 44 45 45 45 44 43 42 40 39 38 36 34 31 30 30 30 29 28 29 29 29 29 28 26 24 23 22
35 37 38 39 40 41 42 44 45 46 47 48 49 49 49 48 47 46 46 46 45 45 44 43 42 40 39 37 35 32 31 31 31 30 29 28 29 30 29 27 26 25 24
35 37 39 40 41 41 43 44 46 47 47 48 49 49 49 47 46 44 43 41 40 42 42 43 43 43 42 40 39 37 34 33 32 32 30 30 29 30 30 30 28 27 26
Wind_Direction
316 324 332 335 332 335 346 352 350 346 343 341 336 328 322 316 311 308 306 308 316 330 340 347 352 356 358 350 331 319 321 326 342 2 21 42 70 100 133 134 122 115 109
317 326 331 332 330 340 356 357 353 348 342 338 333 326 318 311 305 301 300 300 306 316 327 334 338 343 349 350 339 316 308 314 325 334 344 10 70 102 126 141 134 123 118
324 335 340 339 344 0 8 1 354 348 343 339 333 327 319 311 304 300 298 298 301 307 315 321 326 330 335 341 337 318 298 294 299 311 308 300 30 112 128 134 136 131 129
320 335 342 342 351 1 2 355 349 343 338 334 330 325 318 311 305 301 299 298 299 302 306 309 313 317 319 324 326 317 298 282 279 285 285 274 255 195 136 137 144 148 149
309 320 326 333 341 347 346 340 335 331 327 324 319 314 310 305 301 298 297 296 296 297 299 301 303 304 304 304 306 303 295 282 272 270 269 270 265 245 229 211 173 170 184
310 312 316 323 330 332 332 330 326 324 321 317 313 308 303 299 296 293 292 291 291 292 292 293 294 293 292 289 288 286 281 275 270 266 264 263 266 262 255 249 242 223 218
314 313 315 320 325 326 326 325 322 320 318 316 312 306 300 295 292 290 289 287 286 287 286 285 284 284 283 281 278 276 273 269 266 266 267 267 266 267 265 262 259 254 245
313 313 315 318 320 321 322 321 318 316 315 313 311 307 301 296 290 287 285 284 282 282 282 281 279 277 275 274 272 271 270 268 267 265 264 268 270 271 271 267 262 258 254
310 311 313 315 316 318 319 317 315 314 313 312 310 307 302 297 292 287 283 281 280 280 280 278 275 273 271 269 268 266 266 267 267 266 264 264 267 269 270 270 266 260 254
305 308 309 311 312 313 314 313 313 313 312 310 309 307 304 300 295 289 284 281 278 278 277 275 273 270 267 267 266 264 264 265 266 266 265 264 265 264 265 266 265 263 257
299 302 304 306 308 308 309 309 311 312 311 310 308 306 302 301 299 293 286 281 278 275 274 273 273 268 265 263 263 262 262 262 263 265 265 263 262 262 261 261 260 259 256
295 299 302 303 304 304 305 305 307 309 308 308 307 305 301 298 298 294 290 283 279 276 273 272 270 268 264 261 259 259 259 260 262 263 264 261 261 261 261 260 258 255 252
293 295 297 299 302 302 303 303 304 306 307 307 306 304 302 300 298 295 292 286 283 281 278 274 270 266 264 261 258 256 256 257 259 261 264 263 262 261 259 258 256 253 251
291 292 294 295 299 301 302 302 302 304 305 305 304 303 301 300 299 297 295 290 285 285 282 278 274 268 265 262 259 255 255 255 256 259 263 263 263 260 257 255 253 253 252
289 291 293 294 297 299 299 300 300 301 302 303 302 301 301 301 301 301 298 294 290 288 284 280 275 267 263 262 260 257 256 256 255 256 260 260 259 256 255 250 246 248 247
287 289 291 292 295 296 297 297 298 299 300 300 299 299 300 301 302 303 300 296 296 294 286 280 275 265 262 261 260 260 259 255 253 254 256 256 254 251 250 245 243 241 242
285 287 288 291 293 294 295 295 296 296 296 296 296 295 296 298 300 300 300 297 298 295 289 283 275 267 263 262 261 262 260 257 255 252 252 251 249 246 241 240 238 236 238
284 286 287 290 292 292 293 294 294 293 294 295 294 293 293 295 297 298 297 298 298 296 292 286 280 272 264 261 260 261 261 258 257 251 248 248 246 240 237 236 235 236 238
285 285 287 288 290 291 292 293 292 293 293 293 292 291 292 293 294 295 295 296 297 296 293 288 283 274 265 260 258 259 259 257 256 252 247 246 244 241 235 233 234 235 237
285 285 286 288 289 291 293 293 293 293 293 293 291 291 291 291 292 292 293 293 293 293 291 288 283 278 268 260 257 259 258 256 255 253 249 246 245 242 238 236 234 234 237
286 287 288 290 291 293 294 295 294 294 294 293 293 292 292 291 291 290 290 290 290 289 288 285 284 280 274 268 263 260 258 255 252 251 248 245 243 241 240 239 240 238 236
291 291 292 293 294 295 295 295 295 294 294 293 293 293 291 291 290 289 288 287 286 285 284 281 280 279 275 271 266 263 258 254 251 250 247 245 242 240 240 239 238 236 234
296 296 296 297 298 298 297 296 296 295 294 293 293 292 290 289 288 287 285 284 282 281 280 278 276 275 274 272 270 264 259 255 252 248 246 244 242 240 238 236 232 229 228
303 303 303 303 302 301 300 299 299 298 297 296 294 293 292 290 287 285 283 282 280 278 276 275 274 272 270 270 269 265 261 255 251 247 244 242 240 238 235 231 224 221 220
307 306 306 306 305 304 303 302 302 301 300 299 297 296 295 293 289 285 282 280 279 276 273 271 270 269 267 266 265 264 261 257 252 247 243 240 237 234 230 226 220 216 214
308 307 307 307 307 306 304 303 303 302 300 299 297 296 295 293 290 287 283 280 278 277 274 270 267 265 264 262 261 260 259 257 252 247 242 238 235 231 227 222 217 214 211